TimeMDT,TemperatureF,Dew PointF,Humidity,Sea Level PressureIn,VisibilityMPH,Wind Direction,Wind SpeedMPH,Gust SpeedMPH,PrecipitationIn,Events,Conditions,WindDirDegrees,DateUTC
12:00 AM,29,29,99,30.16,,NNW,2.3,,,,,330,2013-08-03 06:00:00
12:00 AM,29.3,28.8,98,30.16,-9999.0,NNW,2.3,-,N/A,,Unknown,330,2013-08-03 06:00:00
1:00 AM,29.3,28.8,98,30.16,-9999.0,NE,2.3,-,N/A,,Unknown,40,2013-08-03 07:00:00
3:00 AM,29.3,28.8,98,30.16,-9999.0,East,5.8,-,N/A,,Unknown,100,2013-08-03 09:00:00
4:00 AM,30.2,29.7,98,30.15,-9999.0,East,4.6,-,N/A,,Unknown,100,2013-08-03 10:00:00
5:00 AM,34.3,31.6,90,30.15,-9999.0,SSW,6.9,-,N/A,,Unknown,200,2013-08-03 11:00:00
6:00 AM,35,32,83,30.15,,SSW,11.5,,,,,200,2013-08-03 12:00:00
6:00 AM,34.7,31.6,89,30.15,-9999.0,SSW,11.5,-,N/A,,Unknown,200,2013-08-03 12:00:00
7:00 AM,35.6,31.3,84,30.14,-9999.0,South,13.8,-,N/A,,Unknown,190,2013-08-03 13:00:00
8:00 AM,37.6,33.6,86,30.13,-9999.0,South,11.5,-,N/A,,Unknown,180,2013-08-03 14:00:00
9:00 AM,38.1,34.0,85,30.12,-9999.0,SSW,15.0,-,N/A,,Unknown,200,2013-08-03 15:00:00
10:00 AM,40.3,35.1,82,30.11,-9999.0,South,15.0,-,N/A,,Unknown,180,2013-08-03 16:00:00
11:00 AM,42.1,36.3,80,30.10,-9999.0,South,19.6,-,N/A,,Unknown,190,2013-08-03 17:00:00
12:00 PM,44,38,71,,,SSW,20.7,,,,,200,2013-08-03 18:00:00
12:00 PM,43.7,37.8,80,-9999,-9999.0,SSW,20.7,-,N/A,,Unknown,200,2013-08-03 18:00:00
1:00 PM,45.3,39.0,79,30.09,-9999.0,South,18.4,-,N/A,,Unknown,190,2013-08-03 19:00:00
2:00 PM,46.2,39.9,79,30.07,-9999.0,SSW,19.6,-,N/A,,Unknown,210,2013-08-03 20:00:00
3:00 PM,46.9,40.5,78,30.07,-9999.0,SSW,15.0,-,N/A,,Unknown,200,2013-08-03 21:00:00
4:00 PM,48.4,40.5,74,30.07,-9999.0,South,17.3,-,N/A,,Unknown,190,2013-08-03 22:00:00
5:00 PM,49.3,41.0,73,30.07,-9999.0,SSW,16.1,-,N/A,,Unknown,200,2013-08-03 23:00:00
6:00 PM,49,42,69,30.06,,South,12.7,,,,,190,2013-08-04 00:00:00
6:00 PM,49.3,42.1,76,30.06,-9999.0,South,12.7,-,N/A,,Unknown,190,2013-08-04 00:00:00
7:00 PM,49.5,42.1,76,30.06,-9999.0,SSW,15.0,-,N/A,,Unknown,200,2013-08-04 01:00:00
8:00 PM,50.2,43.2,77,30.05,-9999.0,SSW,15.0,-,N/A,,Unknown,210,2013-08-04 02:00:00
9:00 PM,48.6,42.6,80,30.04,-9999.0,SSW,11.5,-,N/A,,Unknown,210,2013-08-04 03:00:00
10:00 PM,47.1,41.7,81,30.05,-9999.0,South,8.1,-,N/A,,Unknown,180,2013-08-04 04:00:00
11:00 PM,46.0,41.0,83,30.05,-9999.0,SSW,12.7,-,N/A,,Unknown,200,2013-08-04 05:00:00